EN

Hourly Weather Mytnytsya

Today, 18 April, Sunday

Time Temperature Precipitation Wind Pressure Humidity
00:00 +5°C° 0 mm 2 mps 745 mmHg 93%
01:00 +5°C° 0 mm 2 mps 745 mmHg 94%
02:00 +5°C° 0 mm 2 mps 745 mmHg 94%
03:00 +4°C° 0 mm 2 mps 745 mmHg 94%
04:00 +4°C° 0 mm 2 mps 745 mmHg 95%
05:00 +4°C° 0 mm 2 mps 745 mmHg 95%
06:00 +3°C° 0 mm 3 mps 745 mmHg 91%
07:00 +4°C° 0 mm 3 mps 744 mmHg 88%
08:00 +5°C° 0 mm 3 mps 744 mmHg 85%
09:00 +5°C° 0 mm 3 mps 744 mmHg 83%
10:00 +6°C° 0 mm 4 mps 744 mmHg 82%
11:00 +6°C° 0 mm 4 mps 744 mmHg 81%
12:00 +7°C° 0 mm 3 mps 744 mmHg 81%
13:00 +8°C° 0 mm 3 mps 744 mmHg 82%
14:00 +8°C° 0 mm 3 mps 745 mmHg 82%
15:00 +8°C° 0 mm 2 mps 744 mmHg 82%
16:00 +8°C° 0 mm 2 mps 744 mmHg 82%
17:00 +10°C° 0 mm 1 mps 744 mmHg 83%
18:00 +9°C° 0 mm 1 mps 745 mmHg 85%
19:00 +8°C° 0 mm 2 mps 745 mmHg 88%
20:00 +7°C° 0 mm 2 mps 745 mmHg 91%
21:00 +7°C° 0 mm 2 mps 745 mmHg 92%
22:00 +6°C° 0 mm 2 mps 745 mmHg 93%
23:00 +6°C° 0 mm 2 mps 745 mmHg 93%

Tomorrow, 19 April, Monday

Time Temperature Precipitation Wind Pressure Humidity
00:00 +6°C° 0 mm 2 mps 745 mmHg 94%
01:00 +5°C° 0 mm 2 mps 745 mmHg 94%
02:00 +5°C° 0 mm 2 mps 745 mmHg 94%
03:00 +4°C° 0 mm 2 mps 745 mmHg 94%
04:00 +4°C° 0 mm 2 mps 745 mmHg 93%
05:00 +3°C° 0 mm 2 mps 745 mmHg 93%
06:00 +5°C° 0 mm 2 mps 745 mmHg 87%
07:00 +5°C° 0 mm 3 mps 745 mmHg 81%
08:00 +7°C° 0 mm 3 mps 745 mmHg 76%
09:00 +8°C° 0 mm 3 mps 745 mmHg 70%
10:00 +10°C° 0 mm 3 mps 745 mmHg 64%
11:00 +11°C° 0 mm 3 mps 745 mmHg 58%
12:00 +12°C° 0 mm 3 mps 744 mmHg 55%
13:00 +12°C° 0 mm 3 mps 744 mmHg 51%
14:00 +13°C° 0 mm 3 mps 744 mmHg 48%
15:00 +12°C° 0 mm 3 mps 744 mmHg 53%
16:00 +11°C° 0 mm 3 mps 744 mmHg 58%
17:00 +11°C° 0 mm 3 mps 744 mmHg 62%
18:00 +10°C° 0 mm 3 mps 744 mmHg 66%
19:00 +9°C° 0 mm 3 mps 744 mmHg 70%
20:00 +8°C° 0 mm 3 mps 744 mmHg 73%
21:00 +8°C° 0 mm 3 mps 743 mmHg 76%
22:00 +7°C° 0 mm 3 mps 743 mmHg 80%
23:00 +7°C° 0 mm 3 mps 743 mmHg 83%

Day after tomorrow, 20 April, Tuesday

Time Temperature Precipitation Wind Pressure Humidity
00:00 +7°C° 0 mm 3 mps 743 mmHg 85%
01:00 +5°C° 0 mm 3 mps 742 mmHg 87%
02:00 +5°C° 0 mm 3 mps 742 mmHg 89%
03:00 +5°C° 0.1 mm 4 mps 741 mmHg 90%
04:00 +5°C° 0.1 mm 4 mps 741 mmHg 91%
05:00 +3°C° 0.1 mm 5 mps 741 mmHg 91%
06:00 +5°C° 0 mm 5 mps 741 mmHg 89%
07:00 +5°C° 0 mm 5 mps 741 mmHg 87%
08:00 +4°C° 0 mm 6 mps 740 mmHg 84%
09:00 +5°C° 0 mm 6 mps 740 mmHg 80%
10:00 +7°C° 0 mm 6 mps 740 mmHg 75%
11:00 +8°C° 0 mm 6 mps 739 mmHg 71%
12:00 +7°C° 0 mm 6 mps 739 mmHg 70%
13:00 +7°C° 0 mm 6 mps 739 mmHg 69%
14:00 +7°C° 0 mm 6 mps 738 mmHg 68%
15:00 +7°C° 0 mm 6 mps 738 mmHg 69%
16:00 +7°C° 0 mm 6 mps 738 mmHg 70%
17:00 +7°C° 0 mm 6 mps 737 mmHg 71%
18:00 +5°C° 0 mm 6 mps 738 mmHg 72%
19:00 +4°C° 0 mm 6 mps 738 mmHg 73%
20:00 +4°C° 0 mm 6 mps 738 mmHg 75%
21:00 +3°C° 0 mm 6 mps 738 mmHg 74%
22:00 +3°C° 0 mm 6 mps 738 mmHg 73%
23:00 +3°C° 0 mm 6 mps 738 mmHg 72%

21 April, Wednesday

Time Temperature Precipitation Wind Pressure Humidity
00:00 +2°C° 0 mm 5 mps 738 mmHg 75%
01:00 +2°C° 0 mm 5 mps 738 mmHg 78%
02:00 +1°C° 0 mm 5 mps 738 mmHg 81%
03:00 +1°C° 0 mm 4 mps 739 mmHg 83%
04:00 0°C° 0 mm 4 mps 739 mmHg 85%
05:00 0°C° 0 mm 4 mps 740 mmHg 87%
06:00 +3°C° 0 mm 4 mps 740 mmHg 81%
07:00 +4°C° 0 mm 4 mps 740 mmHg 75%
08:00 +5°C° 0 mm 4 mps 741 mmHg 68%
09:00 +6°C° 0 mm 5 mps 741 mmHg 65%
10:00 +7°C° 0 mm 5 mps 741 mmHg 63%
11:00 +9°C° 0 mm 5 mps 742 mmHg 60%
12:00 +9°C° 0 mm 5 mps 742 mmHg 58%
13:00 +10°C° 0 mm 5 mps 742 mmHg 55%
14:00 +11°C° 0 mm 4 mps 742 mmHg 53%
15:00 +11°C° 0 mm 4 mps 742 mmHg 54%
16:00 +12°C° 0 mm 4 mps 742 mmHg 55%
17:00 +12°C° 0 mm 3 mps 742 mmHg 56%
18:00 +11°C° 0 mm 3 mps 742 mmHg 62%
19:00 +9°C° 0 mm 3 mps 743 mmHg 69%
20:00 +8°C° 0 mm 3 mps 743 mmHg 76%
21:00 +8°C° 0.1 mm 3 mps 743 mmHg 80%
22:00 +7°C° 0.1 mm 3 mps 743 mmHg 84%
23:00 +7°C° 0.1 mm 3 mps 743 mmHg 87%

22 April, Thursday

Time Temperature Precipitation Wind Pressure Humidity
00:00 +5°C° 0.1 mm 3 mps 744 mmHg 88%
01:00 +5°C° 0.1 mm 3 mps 744 mmHg 89%
02:00 +5°C° 0.1 mm 3 mps 744 mmHg 90%
03:00 +4°C° 0 mm 3 mps 744 mmHg 90%
04:00 +5°C° 0 mm 2 mps 744 mmHg 89%
05:00 +5°C° 0 mm 2 mps 744 mmHg 89%
06:00 +7°C° 0 mm 2 mps 744 mmHg 83%
07:00 +9°C° 0 mm 3 mps 745 mmHg 76%
08:00 +10°C° 0 mm 3 mps 745 mmHg 70%
09:00 +12°C° 0.1 mm 3 mps 745 mmHg 65%
10:00 +13°C° 0.1 mm 3 mps 745 mmHg 59%
11:00 +16°C° 0.1 mm 3 mps 745 mmHg 54%
12:00 +15°C° 0.3 mm 4 mps 745 mmHg 51%
13:00 +17°C° 0.3 mm 4 mps 745 mmHg 49%
14:00 +17°C° 0.3 mm 5 mps 745 mmHg 46%
15:00 +17°C° 0 mm 4 mps 745 mmHg 51%
16:00 +16°C° 0 mm 3 mps 745 mmHg 56%
17:00 +14°C° 0 mm 3 mps 745 mmHg 61%
18:00 +13°C° 0.2 mm 3 mps 745 mmHg 66%
19:00 +12°C° 0.2 mm 3 mps 745 mmHg 70%
20:00 +12°C° 0.2 mm 2 mps 745 mmHg 74%
21:00 +10°C° 0 mm 2 mps 745 mmHg 75%
22:00 +9°C° 0 mm 3 mps 745 mmHg 77%
23:00 +9°C° 0 mm 3 mps 745 mmHg 78%

23 April, Friday

Time Temperature Precipitation Wind Pressure Humidity
00:00 +9°C° 0 mm 3 mps 745 mmHg 81%
01:00 +8°C° 0 mm 3 mps 745 mmHg 83%
02:00 +8°C° 0 mm 3 mps 745 mmHg 85%
03:00 +8°C° 0 mm 3 mps 745 mmHg 86%
04:00 +8°C° 0 mm 3 mps 745 mmHg 87%
05:00 +8°C° 0 mm 3 mps 745 mmHg 88%
06:00 +9°C° 0 mm 3 mps 745 mmHg 84%
07:00 +10°C° 0 mm 4 mps 745 mmHg 79%
08:00 +12°C° 0 mm 4 mps 745 mmHg 74%
09:00 +13°C° 0.1 mm 4 mps 745 mmHg 69%
10:00 +14°C° 0.1 mm 4 mps 745 mmHg 63%
11:00 +17°C° 0.1 mm 4 mps 745 mmHg 58%
12:00 +17°C° 1 mm 4 mps 745 mmHg 58%
13:00 +17°C° 1 mm 4 mps 744 mmHg 58%
14:00 +17°C° 1 mm 4 mps 744 mmHg 58%
15:00 +14°C° 1.8 mm 4 mps 744 mmHg 67%
16:00 +12°C° 1.8 mm 4 mps 745 mmHg 76%
17:00 +10°C° 1.8 mm 4 mps 745 mmHg 86%
18:00 +10°C° 0.9 mm 4 mps 745 mmHg 86%
19:00 +8°C° 0.9 mm 4 mps 745 mmHg 87%
20:00 +8°C° 0.9 mm 4 mps 745 mmHg 87%
21:00 +7°C° 0.2 mm 4 mps 745 mmHg 88%
22:00 +7°C° 0.2 mm 4 mps 745 mmHg 88%
23:00 +8°C° 0.2 mm 3 mps 745 mmHg 89%
Show more

We Need Your Consent

Meteoprog and our Service Providers may store and access personal data such as cookies, device identifiers or other similar technologies on your device and process such data to personalise content and ads, as well as provide social media features and to analyse the traffic.

  • Store and/or access information on your device

    Cookies, device identifiers or other information can be stored or accessed on your device for the purposes indicated above.

  • Personalised ads and content, ad and content measurement, audience insights, and products development

    Ads and content can be personalised based on a profile. More data can be added to better personalise ads and content. Ad and content performance can be measured. Insights about the audience who saw the ads and content can be derived. Such data can be used to develop or improve user’s experience, systems and software.

By clicking ‘I Agree’ you will allow the use of indicated cookies, device identifiers, web beacons or other similar technologies. Your settings can be changed in the browser on your device.

For certain purposes, legitimate interests may be relied on, rather than consent. You can read more about this in our Privacy and Cookie Policy.